Weather History for KYKN - October, 2012

Change the Weather History Date:

Monday, October 8, 2012

  Actual Average Record
Temperature  
Mean Temperature 58 °F -  
Max Temperature 71 °F 67 °F 90 °F (1980)
Min Temperature 44 °F 39 °F 17 °F (2000)
Degree Days  
Heating Degree Days 8    
Growing Degree Days 8 (Base 50)    
Moisture  
Dew Point 31 °F    
Average Humidity 40    
Maximum Humidity 67    
Minimum Humidity 21    
Precipitation  
Precipitation 0.00 in - - ()
Sea Level Pressure  
Sea Level Pressure 29.79 in    
Wind  
Wind Speed 13 mph (WSW)    
Max Wind Speed 22 mph    
Max Gust Speed 30 mph    
Visibility 10 miles    
Events      
Averages and records for this station are not official NWS values.
T = Trace of Precipitation, MM = Missing Value Source: NWS Daily Summary

Daily Weather History Graph

Daily Weather History Graph

Search for Another Location

Airport or City:

Trip Planner

Search our weather history database for the weather conditions in past years. The results will help you decide how hot, cold, wet, or windy it might be!

Date:

Astronomy

Oct. 08, 2012 Rise Set
Actual Time 7:35 AM CDT 6:57 PM CDT
Civil Twilight 7:07 AM CDT 7:26 PM CDT
Nautical Twilight 6:34 AM CDT 7:58 PM CDT
Astronomical Twilight 6:01 AM CDT 8:31 PM CDT
Moon 12:06 AM CDT (10/8) 2:57 PM CDT (10/8)
Length of Visible Light 12h 19m
Length of Day
11h 22m
Last Quarter, 46% of the Moon is Illuminated
Oct 8
Last Quarter
Oct 15
New
Oct 21
First Quarter
Oct 29
Full
Nov 6
Last Quarter

Hourly Weather History & Observations

Time (CDT) Temp. Windchill Dew Point Humidity Pressure Visibility Wind Dir Wind Speed Gust Speed Precip Events Conditions
12:15 AM 44.6 °F 38.8 °F 21.2 °F 39% 29.88 in 10.0 mi SSW 11.5 mph - N/A   Clear
12:35 AM 44.6 °F 39.2 °F 21.2 °F 39% 29.88 in 10.0 mi SW 10.4 mph - N/A   Clear
12:55 AM 44.6 °F 39.2 °F 23.0 °F 43% 29.87 in 10.0 mi SW 10.4 mph - N/A   Clear
1:15 AM 44.6 °F 38.8 °F 24.8 °F 46% 29.87 in 10.0 mi SW 11.5 mph - N/A   Clear
1:35 AM 44.6 °F 39.2 °F 24.8 °F 46% 29.87 in 10.0 mi SW 10.4 mph - N/A   Clear
1:55 AM 44.6 °F 39.2 °F 23.0 °F 43% 29.87 in 10.0 mi SW 10.4 mph - N/A   Clear
2:15 AM 44.6 °F 39.7 °F 23.0 °F 43% 29.87 in 10.0 mi SSW 9.2 mph - N/A   Clear
2:35 AM 44.6 °F 39.7 °F 23.0 °F 43% 29.86 in 10.0 mi SSW 9.2 mph - N/A   Clear
2:55 AM 44.6 °F 39.2 °F 24.8 °F 46% 29.86 in 10.0 mi SW 10.4 mph - N/A   Clear
3:15 AM 46.4 °F 41.1 °F 24.8 °F 43% 29.85 in 10.0 mi SSW 11.5 mph - N/A   Clear
3:35 AM 46.4 °F 41.1 °F 24.8 °F 43% 29.84 in 10.0 mi SW 11.5 mph - N/A   Clear
3:55 AM 46.4 °F 41.1 °F 24.8 °F 43% 29.84 in 10.0 mi SSW 11.5 mph - N/A   Clear
4:15 AM 46.4 °F 41.5 °F 26.6 °F 46% 29.83 in 10.0 mi SSW 10.4 mph - N/A   Clear
4:35 AM 46.4 °F 41.5 °F 26.6 °F 46% 29.83 in 10.0 mi SSW 10.4 mph - N/A   Clear
4:55 AM 46.4 °F 41.1 °F 26.6 °F 46% 29.83 in 10.0 mi SSW 11.5 mph - N/A   Clear
5:15 AM 46.4 °F 41.1 °F 26.6 °F 46% 29.83 in 10.0 mi SW 11.5 mph - N/A   Partly Cloudy
5:35 AM 48.2 °F - 26.6 °F 43% 29.83 in 10.0 mi SSW 11.5 mph - N/A   Partly Cloudy
5:55 AM 48.2 °F - 28.4 °F 46% 29.83 in 10.0 mi SW 11.5 mph - N/A   Scattered Clouds
6:15 AM 48.2 °F - 28.4 °F 46% 29.81 in 10.0 mi SSW 12.7 mph - N/A   Mostly Cloudy
6:35 AM 48.2 °F - 28.4 °F 46% 29.81 in 10.0 mi SSW 13.8 mph - N/A   Partly Cloudy
6:55 AM 48.2 °F - 28.4 °F 46% 29.81 in 10.0 mi SW 12.7 mph - N/A   Mostly Cloudy
7:15 AM 48.2 °F - 28.4 °F 46% 29.80 in 10.0 mi SSW 12.7 mph - N/A   Overcast
7:35 AM 48.2 °F - 28.4 °F 46% 29.79 in 10.0 mi SSW 12.7 mph - N/A   Partly Cloudy
7:55 AM 50.0 °F - 26.6 °F 40% 29.78 in 10.0 mi SSW 13.8 mph - N/A   Clear
8:15 AM 50.0 °F - 26.6 °F 40% 29.79 in 10.0 mi SW 12.7 mph - N/A   Partly Cloudy
8:35 AM 50.0 °F - 28.4 °F 43% 29.79 in 10.0 mi SW 11.5 mph - N/A   Partly Cloudy
8:55 AM 51.8 °F - 28.4 °F 41% 29.79 in 10.0 mi SW 13.8 mph - N/A   Clear
9:15 AM 51.8 °F - 28.4 °F 41% 29.79 in 10.0 mi SW 13.8 mph - N/A   Clear
9:35 AM 53.6 °F - 28.4 °F 38% 29.78 in 10.0 mi SW 15.0 mph 18.4 mph N/A   Clear
9:55 AM 53.6 °F - 28.4 °F 38% 29.78 in 10.0 mi SW 13.8 mph 20.7 mph N/A   Clear
10:15 AM 55.4 °F - 28.4 °F 36% 29.77 in 10.0 mi SW 13.8 mph - N/A   Clear
10:35 AM 57.2 °F - 28.4 °F 33% 29.76 in 10.0 mi SW 16.1 mph 21.9 mph N/A   Clear
10:55 AM 59.0 °F - 28.4 °F 31% 29.76 in 10.0 mi SW 16.1 mph 19.6 mph N/A   Clear
11:15 AM 60.8 °F - 28.4 °F 29% 29.76 in 10.0 mi SW 18.4 mph 21.9 mph N/A   Clear
11:35 AM 60.8 °F - 26.6 °F 27% 29.76 in 10.0 mi SW 17.3 mph 21.9 mph N/A   Scattered Clouds
11:55 AM 62.6 °F - 28.4 °F 27% 29.75 in 10.0 mi SW 16.1 mph - N/A   Partly Cloudy
12:15 PM 62.6 °F - 28.4 °F 27% 29.74 in 10.0 mi SW 15.0 mph - N/A   Partly Cloudy
12:55 PM 66.2 °F - 28.4 °F 24% 29.73 in 10.0 mi WSW 16.1 mph 21.9 mph N/A   Clear
1:15 PM 69.8 °F - 28.4 °F 21% 29.72 in 10.0 mi West 16.1 mph 23.0 mph N/A   Clear
1:35 PM 69.8 °F - 28.4 °F 21% 29.72 in 10.0 mi West 19.6 mph 25.3 mph N/A   Clear
1:55 PM 69.8 °F - 28.4 °F 21% 29.71 in 10.0 mi West 16.1 mph 20.7 mph N/A   Clear
2:15 PM 71.6 °F - 30.2 °F 22% 29.71 in 10.0 mi WNW 18.4 mph 24.2 mph N/A   Clear
2:35 PM 71.6 °F - 32.0 °F 23% 29.71 in 10.0 mi West 19.6 mph 26.5 mph N/A   Clear
2:55 PM 71.6 °F - 32.0 °F 23% 29.71 in 10.0 mi West 20.7 mph 26.5 mph N/A   Clear
3:15 PM 71.6 °F - 33.8 °F 25% 29.71 in 10.0 mi West 19.6 mph 27.6 mph N/A   Clear
3:35 PM 71.6 °F - 35.6 °F 27% 29.71 in 9.0 mi West 21.9 mph - N/A   Clear
3:55 PM 71.6 °F - 33.8 °F 25% 29.71 in 8.0 mi WNW 20.7 mph 29.9 mph N/A   Clear
4:15 PM 69.8 °F - 33.8 °F 27% 29.71 in 10.0 mi West 16.1 mph 26.5 mph N/A   Clear
4:35 PM 69.8 °F - 33.8 °F 27% 29.71 in 10.0 mi West 20.7 mph 26.5 mph N/A   Clear
4:55 PM 69.8 °F - 33.8 °F 27% 29.71 in 10.0 mi West 17.3 mph 26.5 mph N/A   Clear
5:15 PM 69.8 °F - 35.6 °F 28% 29.72 in 8.0 mi West 11.5 mph 20.7 mph N/A   Scattered Clouds
5:35 PM 68.0 °F - 37.4 °F 33% 29.72 in 9.0 mi WNW 16.1 mph - N/A   Partly Cloudy
5:55 PM 68.0 °F - 35.6 °F 30% 29.73 in 9.0 mi WNW 13.8 mph - N/A   Clear
6:15 PM 66.2 °F - 35.6 °F 32% 29.74 in 10.0 mi NW 16.1 mph - N/A   Clear
6:35 PM 66.2 °F - 35.6 °F 32% 29.75 in 10.0 mi NW 17.3 mph - N/A   Clear
6:55 PM 64.4 °F - 37.4 °F 37% 29.76 in 10.0 mi NW 19.6 mph 25.3 mph N/A   Clear
7:15 PM 62.6 °F - 37.4 °F 39% 29.77 in 10.0 mi NW 17.3 mph 21.9 mph N/A   Clear
7:35 PM 62.6 °F - 39.2 °F 42% 29.77 in 10.0 mi NW 17.3 mph - N/A   Clear
7:55 PM 60.8 °F - 39.2 °F 45% 29.78 in 10.0 mi NW 11.5 mph - N/A   Clear
8:15 PM 60.8 °F - 39.2 °F 45% 29.78 in 10.0 mi NNW 15.0 mph - N/A   Clear
8:35 PM 60.8 °F - 39.2 °F 45% 29.79 in 10.0 mi NNW 11.5 mph - N/A   Clear
9:15 PM 57.2 °F - 42.8 °F 59% 29.81 in 10.0 mi NNW 10.4 mph - N/A   Clear
9:35 PM 57.2 °F - 42.8 °F 59% 29.80 in 10.0 mi NNW 6.9 mph - N/A   Clear
9:55 PM 55.4 °F - 41.0 °F 58% 29.80 in 10.0 mi NNW 3.5 mph - N/A   Clear
10:15 PM 55.4 °F - 42.8 °F 63% 29.80 in 10.0 mi South 6.9 mph - N/A   Clear
10:55 PM 55.4 °F - 42.8 °F 63% 29.81 in 10.0 mi WNW 5.8 mph - N/A   Clear
11:15 PM 53.6 °F - 42.8 °F 67% 29.80 in 10.0 mi NW 9.2 mph - N/A   Clear
11:35 PM 55.4 °F - 44.6 °F 67% 29.82 in 10.0 mi WNW 8.1 mph - N/A   Clear
11:55 PM 55.4 °F - 42.8 °F 63% 29.82 in 10.0 mi WNW 5.8 mph - N/A   Clear